EW5170 Weather Reports


time (UTC)temp
C
wind
direction
speed
KPH
gust
KPH
rain 1hr
cm
rain 24hr
cm
rain mn
cm
humidity
%
barometer
mb
20260506221546 16 252 0.0 11.3 0.00 0.00 0.00 78 1009.8
20260506220045 17 355 0.0 8.0 0.00 0.00 0.00 77 1009.7
20260506214546 17 309 0.0 9.7 0.00 0.00 0.00 76 1009.4
20260506213044 17 86 1.6 11.3 0.00 0.00 0.00 76 1009.4
20260506211545 17 17 0.0 6.4 0.00 0.00 0.00 76 1009.7
20260506210045 17 11 0.0 4.8 0.00 0.00 0.00 76 1009.9
20260506204543 17 315 1.6 12.9 0.00 0.00 0.00 75 1010.0
20260506203045 18 200 0.0 11.3 0.00 0.00 0.00 74 1009.9
20260506201541 18 26 1.6 11.3 0.00 0.00 0.00 74 1009.7
20260506194540 20 159 1.6 9.7 0.00 0.00 0.00 73 1009.4
20260506193041 21 254 3.2 12.9 0.00 0.00 0.00 73 1009.3
20260506191539 21 277 1.6 9.7 0.00 0.00 0.00 72 1009.5
20260506190038 22 338 0.0 9.7 0.00 0.00 0.00 71 1009.5
20260506184537 23 221 1.6 8.0 0.00 0.00 0.00 71 1009.2
20260506183035 23 63 0.0 8.0 0.00 0.00 0.00 72 1009.1
20260506181536 22 115 1.6 9.7 0.00 0.00 0.00 75 1009.2
20260506180040 21 221 1.6 8.0 0.00 0.00 0.00 76 1008.9
20260506174531 21 108 3.2 12.9 0.00 0.00 0.00 78 1008.8
20260506173031 20 28 1.6 9.7 0.00 0.00 0.00 81 1008.8
20260506171544 18 127 0.0 11.3 0.00 0.00 0.00 83 1008.9
20260506170027 18 144 1.6 9.7 0.00 0.00 0.00 87 1009.0
20260506164527 17 90 1.6 9.7 0.00 0.00 0.00 88 1009.1
20260506163031 17 55 0.0 12.9 0.00 0.00 0.00 89 1009.9
20260506161536 16 128 1.6 11.3 0.00 0.00 0.00 87 1009.8
20260506160020 17 85 0.0 17.7 0.00 0.00 0.00 86 1010.6
20260506154549 18 24 1.6 8.0 0.00 0.00 0.00 84 1010.3
20260506153046 18 20 0.0 17.7 0.00 0.00 0.00 83 1010.3
20260506151541 20 19 0.0 9.7 0.00 0.00 0.00 81 1009.2
20260506150037 21 300 1.6 9.7 0.00 0.00 0.00 80 1008.9
20260506144531 23 338 1.6 12.9 0.00 0.00 0.00 80 1007.9
20260506143027 25 255 0.0 0.0 0.00 0.00 0.00 88 1007.6
20260506141524 24 257 0.0 1.6 0.00 0.00 0.00 89 1007.1
20260506140022 24 77 0.0 0.0 0.00 0.00 0.00 89 1007.4
20260506134539 23 243 0.0 0.0 0.00 0.00 0.00 89 1006.8
20260506133015 23 355 0.0 3.2 0.00 0.00 0.00 89 1006.8
20260506131513 23 81 0.0 0.0 0.00 0.00 0.00 89 1006.6
20260506130014 23 78 0.0 0.0 0.00 0.00 0.00 89 1006.5
20260506124513 23 61 0.0 0.0 0.00 0.00 0.00 89 1006.3
20260506123006 23 252 0.0 0.0 0.00 0.00 0.00 88 1006.1
20260506121508 23 252 0.0 0.0 0.00 0.00 0.00 88 1006.2
20260506120006 23 252 0.0 0.0 0.00 0.00 0.00 88 1006.3
20260506114601 23 252 0.0 0.0 0.00 0.00 0.00 88 1006.1
20260506113100 23 252 0.0 0.0 0.00 0.00 0.00 88 1006.2
20260506111613 23 252 0.0 0.0 0.00 0.00 0.00 88 1006.2
20260506110057 23 252 0.0 0.0 0.00 0.00 0.00 88 1006.2
20260506104604 23 252 0.0 0.0 0.00 0.00 0.00 87 1006.0
20260506103101 23 106 0.0 0.0 0.00 0.00 0.00 87 1005.9
20260506101554 23 126 0.0 0.0 0.00 0.00 0.00 87 1005.9
20260506100052 23 126 0.0 0.0 0.00 0.00 0.00 87 1005.8
20260506094550 23 126 0.0 0.0 0.00 0.00 0.00 87 1005.6
20260506093053 23 92 0.0 3.2 0.00 0.00 0.00 87 1005.2
20260506091548 23 76 0.0 0.0 0.00 0.00 0.00 87 1005.2
20260506090047 23 128 0.0 0.0 0.00 0.00 0.00 87 1005.0
20260506084547 23 76 0.0 3.2 0.00 0.00 0.00 87 1005.1
20260506083107 23 309 0.0 0.0 0.00 0.00 0.00 87 1005.0
20260506081550 23 226 0.0 1.6 0.00 0.00 0.00 87 1004.8
20260506073043 23 26 0.0 8.0 0.00 0.00 0.00 87 1005.2
20260506071545 23 268 0.0 1.6 0.00 0.00 0.00 87 1005.5
20260506061541 23 155 0.0 8.0 0.00 0.00 0.00 86 1005.2
20260506044528 24 168 0.0 0.0 0.00 0.00 0.00 85 1005.3
20260506043027 24 254 0.0 4.8 0.00 0.00 0.00 84 1005.4
20260506041531 24 68 0.0 3.2 0.00 0.00 0.00 84 1005.2
20260506040028 25 198 0.0 3.2 0.00 0.00 0.00 83 1005.1
20260506034527 25 198 0.0 3.2 0.00 0.00 0.00 83 1004.7
20260506033025 25 282 0.0 3.2 0.00 0.00 0.00 82 1004.8
20260506031531 25 177 0.0 4.8 0.00 0.00 0.00 81 1004.5
20260506030026 25 236 0.0 3.2 0.00 0.00 0.00 81 1004.4
20260506024536 25 254 0.0 4.8 0.00 0.00 0.00 80 1004.3
20260506023022 25 346 0.0 0.0 0.00 0.00 0.00 79 1003.9
20260506021522 26 338 0.0 1.6 0.00 0.00 0.00 78 1003.7
20260506020024 26 82 0.0 3.2 0.00 0.00 0.00 77 1003.3
20260506014522 26 40 0.0 0.0 0.00 0.00 0.00 76 1003.2
20260506013022 26 32 0.0 0.0 0.00 0.00 0.00 75 1003.1
20260506011546 27 337 0.0 1.6 0.00 0.00 0.00 74 1003.0
20260506010020 27 177 0.0 0.0 0.00 0.00 0.00 74 1003.0
20260506004519 27 175 0.0 0.0 0.00 0.00 0.00 73 1003.0
20260506003019 27 257 0.0 1.6 0.00 0.00 0.00 72 1002.9
20260506001518 28 148 0.0 0.0 0.00 0.00 0.00 71 1003.1
20260506000030 28 148 0.0 1.6 0.00 0.00 0.00 71 1003.0
20260505234534 28 213 0.0 1.6 0.00 0.00 0.00 70 1002.8
20260505233016 28 360 0.0 3.2 0.00 0.00 0.00 69 1002.6
20260505231516 28 232 0.0 3.2 0.00 0.00 0.00 68 1002.4
20260505230028 29 236 1.6 11.3 0.00 0.00 0.00 67 1002.4
20260505224523 29 308 0.0 3.2 0.00 0.00 0.00 66 1002.3
20260505223016 30 194 0.0 3.2 0.00 0.00 0.00 65 1002.3